"Pseudo-MPEC" for ZW9268F

Created 2018 Dec 9 15:18:20 UT using Find_Orb

Click here for an explanation of pseudo-MPECs

 
 Astrometry: 
     ZW9268F  C2018 11 30.22565 03 45 02.35 +12 15 45.7          20.8 GVNEOCPG96
     ZW9268F  C2018 11 30.23146 03 45 02.26 +12 15 41.2          20.3 GVNEOCPG96
     ZW9268F  C2018 11 30.23731 03 45 02.13 +12 15 36.1          20.9 GVNEOCPG96
     ZW9268F  C2018 12 04.22382 03 44 12.16 +11 23 43.4                VNEOCPG96
     ZW9268F  C2018 12 04.22945 03 44 12.14 +11 23 37.8          20.5 GVNEOCPG96
     ZW9268F  C2018 12 04.23509 03 44 12.03 +11 23 34.9          20.2 GVNEOCPG96
     ZW9268F  C2018 12 04.24071 03 44 11.94 +11 23 30.4          21.6 GVNEOCPG96
     ZW9268F KC2018 12 04na?cDr(?9._gTi$Astrometry-E1iYMjXA!rf=$H$C2H:h/#'wWKJ04
     ZW9268F KC2018 12 040@lh;Ga'G$+p\)(+EvM.yredacted;T_VY7llh_nRY:Ata\!c:aYJ04
     ZW9268F KC2018 12 04.wE=]!vNGB`jn?^imKoc?0vkQC\`@'WW]-+^*!EtJdY9XY?'B8krJ04
     ZW9268F  C2018 12 04.91473 03 44 05.37 +11 15 19.9          20.1 VSNEOCP033
     ZW9268F  C2018 12 04.91836 03 44 05.33 +11 15 17.2          20.1 VSNEOCP033
     ZW9268F  C2018 12 04.92198 03 44 05.29 +11 15 14.5          20.5 VSNEOCP033
     ZW9268F  C2018 12 04.92559 03 44 05.24 +11 15 11.8          20.4 VSNEOCP033
     ZW9268F  C2018 12 04.92921 03 44 05.19 +11 15 09.4          20.1 VSNEOCP033
     ZW9268F KC2018 12 06b[W@%H[!C+fVxxi=%e0J]oF$]y$yZ5?R.yUVZclickVS?vc=tR5SL01
     ZW9268F KC2018 12 06h/hereF/46(gD[vTo,b4)KRW$AeAfBvOoPqXPrA?.$,,_(`/4HCqL01
     ZW9268F KC2018 12 06M66#@_T7^c9#K=cWWkrftcQHmTcN\e_@$m1B,O6cSM2d^*xXnP'aL01
     ZW9268F KC2018 12 07$1R(X%dm;NGH!33sq=rPeH12F_qforr=O)pXah]5xT\F/J3(A+KpH21
     ZW9268F KC2018 12 07:USj8#HSk_Y7g=7PgKY.V3ZjpWYSmsbGcTJebp$uvocm-mZ2LCB`H21
     ZW9268F KC2018 12 07[s\wtRE?:oD5kmR_Fs2L.fsexplanationWG7Y(0Y_p1*5%S3oD'H21
     ZW9268F  C2018 12 08.77118 03 43 41.51 +10 32 53.2          21.3 VSNEOCP033
     ZW9268F  C2018 12 08.77475 03 43 41.47 +10 32 51.1          21.2 VSNEOCP033
     ZW9268F  C2018 12 08.77831 03 43 41.47 +10 32 49.0          21.0 VSNEOCP033
     ZW9268F  C2018 12 09.17159 03 43 40.17 +10 28 56.2          21.0 GVNEOCPI52
     ZW9268F  C2018 12 09.17764 03 43 40.17 +10 28 52.1          20.9 GVNEOCPI52
     ZW9268F  C2018 12 09.18370 03 43 40.15 +10 28 48.2          20.7 GVNEOCPI52
     ZW9268F  C2018 12 09.18975 03 43 40.06 +10 28 44.7          20.9 GVNEOCPI52

Station data:
(033) Karl Schwarzschild Observatory, Tautenburg  (N50.980140 E11.711240)
   Germany. 1.3-m Schmidt.
(G96) Mt. Lemmon Survey  (N32.442754 W110.788720)  US/Arizona.  Observers B.
   M. Africano, E. J. Christensen, G. A. Farneth, D. C. Fuls, A. R. Gibbs, A.
   D. Grauer, H. Groeller, J. A. Johnson, R. A. Kowalski, S. M. Larson, G. J.
   Leonard, R. L. Seaman, F. C. Shelly. 1.5-m reflector + 10K CCD.
(H21) Astronomical Research Observatory, Westfield  (N39.483057 W87.968270)
   US/Illinois. 0.76-m f/3.0 astrograph + CCD.
(I52) Steward Observatory, Mt. Lemmon Station  (N32.442547 W110.788920)
   US/Arizona.  Observers B. M. Africano, E. J. Christensen, G. A. Farneth,
   D. C. Fuls, A. R. Gibbs, A. D. Grauer, H. Groeller, J. A. Johnson, R. A.
   Kowalski, S. M. Larson, G. J. Leonard, R. L. Seaman, F. C. Shelly. 1.0-m
   reflector + CCD.
(J04) ESA Optical Ground Station, Tenerife  (N28.300924 W16.511830)  Canary
   Islands (Spain).  Observer D. Abreu. Measurers M. Micheli, D. Koschny, E.
   Schwab, M. Busch, A. Knöfel. 1.0-m f/4.4 reflector + CCD.
(L01) Višnjan Observatory, Tičan  (N45.290900 E13.749300)  Croatia.
   Observers K. Korlević, E. Pettarin. Measurer E. Pettarin. 1.0-m f/2.9
   reflector + CCD.

Orbital elements:  ZW9268F
   Perihelion 2018 Oct 13.046177 +/- 0.379 TT =  1:06:29 (JD 2458404.546177)
Epoch 2018 Dec  9.0 TT = JDT 2458461.5   Earth MOID: 0.5364   Ma: 0.0727
M  12.93095038 +/- 0.044            (J2000 ecliptic)          AutoNEOCP
n   0.22704271 +/- 0.000988         Peri.  167.30984 +/- 0.25
a   2.66111926 +/- 0.00772          Node   227.23348 +/- 0.020
e   0.4258180 +/- 0.0015            Incl.   10.00022 +/- 0.029
P   4.34                   H 20.1   G  0.15   U  8.1  
q 1.52796654 +/- 0.000717    Q 3.79427199 +/- 0.0149
From 28 observations 2018 Nov. 30-Dec. 9; mean residual 0".37
Residuals in arcseconds: 
181130 G96  .19-  .10-    181204 033  .22-  .53-    181207 H21  .57-  .44+    
181130 G96  .18+  .20+    181204 033  .12-  .64-    181208 033  .21+  .00     
181130 G96  .03-  .06-    181204 033  .02-  .77-    181208 033  .08-  .04+    
181204 G96  .43-  .98+    181204 033  .08-  .90-    181208 033  .23+  .08+    
181204 G96  .51+  .53-    181204 033  .13-  .72-    181209 I52  .54-  .39+    
181204 G96  .14+  .67+    181206 L01  .37+  .27+    181209 I52  .09+  .13-    
181204 G96  .06+  .26+    181206 L01  .30+  .10+    181209 I52  .43+  .45-    
181204 J04  .03-  .31+    181206 L01  .23+  .20+    181209 I52  .26-  .36-    
181204 J04  .17+  .19+    181207 H21  .19-  .22-    
181204 J04  .03+  .13+    181207 H21  .19-  .47+    

Ephemerides (geocentric):
Date (UTC) HH   RA              Dec         delta   r     elong  mag " sig PA
---- -- -- --  -------------   -----------  ------ ------ -----  --- ---- ---
2018 12 09 15  03 43 38.804   +10 24 32.90  .65976 1.6131 157.0 21.1 .173  88
2018 12 09 16  03 43 38.724   +10 24 08.54  .66001 1.6132 157.0 21.1 .179  88
2018 12 09 17  03 43 38.648   +10 23 44.24  .66026 1.6133 157.0 21.1 .185  88
2018 12 09 18  03 43 38.574   +10 23 19.98  .66050 1.6134 156.9 21.1 .190  88
2018 12 09 19  03 43 38.503   +10 22 55.77  .66075 1.6136 156.9 21.1 .196  88
2018 12 09 20  03 43 38.435   +10 22 31.60  .66100 1.6137 156.8 21.1 .202  88
2018 12 09 21  03 43 38.370   +10 22 07.48  .66125 1.6138 156.8 21.1 .208  88
2018 12 09 22  03 43 38.308   +10 21 43.41  .66150 1.6139 156.7 21.1 .214  88
2018 12 09 23  03 43 38.249   +10 21 19.39  .66175 1.6140 156.7 21.1 .220  88
2018 12 10 00  03 43 38.192   +10 20 55.41  .66200 1.6141 156.7 21.1 .226  88
2018 12 10 01  03 43 38.139   +10 20 31.48  .66225 1.6143 156.6 21.1 .232  88
2018 12 10 02  03 43 38.088   +10 20 07.60  .66250 1.6144 156.6 21.1 .238  88
2018 12 10 03  03 43 38.040   +10 19 43.77  .66275 1.6145 156.5 21.1 .245  88
2018 12 10 04  03 43 37.996   +10 19 19.98  .66300 1.6146 156.5 21.1 .251  88
2018 12 10 05  03 43 37.954   +10 18 56.24  .66325 1.6147 156.4 21.1 .257  88
2018 12 10 06  03 43 37.915   +10 18 32.55  .66350 1.6149 156.4 21.1 .264  88
2018 12 10 07  03 43 37.879   +10 18 08.90  .66376 1.6150 156.4 21.1 .270  88
2018 12 10 08  03 43 37.845   +10 17 45.30  .66401 1.6151 156.3 21.1 .277  88
2018 12 10 09  03 43 37.815   +10 17 21.75  .66426 1.6152 156.3 21.1 .284  88
2018 12 10 10  03 43 37.788   +10 16 58.25  .66451 1.6153 156.2 21.1 .291  88
2018 12 10 11  03 43 37.763   +10 16 34.79  .66477 1.6154 156.2 21.1 .297  88
2018 12 10 12  03 43 37.742   +10 16 11.39  .66502 1.6156 156.1 21.1 .304  88
2018 12 10 13  03 43 37.723   +10 15 48.02  .66528 1.6157 156.1 21.1 .311  88
2018 12 10 14  03 43 37.707   +10 15 24.71  .66553 1.6158 156.1 21.1 .318  88
2018 12 10 15  03 43 37.694   +10 15 01.44  .66578 1.6159 156.0 21.1 .325  88
2018 12 10 16  03 43 37.685   +10 14 38.22  .66604 1.6160 156.0 21.1 .332  88
2018 12 10 17  03 43 37.678   +10 14 15.05  .66629 1.6162 155.9 21.1 .340  88
2018 12 10 18  03 43 37.674   +10 13 51.92  .66655 1.6163 155.9 21.1 .347  87
2018 12 10 19  03 43 37.673   +10 13 28.85  .66680 1.6164 155.9 21.1 .354  87
2018 12 10 20  03 43 37.675   +10 13 05.82  .66706 1.6165 155.8 21.1 .362  87
2018 12 10 21  03 43 37.680   +10 12 42.83  .66732 1.6166 155.8 21.1 .369  87
2018 12 10 22  03 43 37.687   +10 12 19.90  .66757 1.6168 155.7 21.1 .377  87
2018 12 10 23  03 43 37.698   +10 11 57.01  .66783 1.6169 155.7 21.1 .385  87
2018 12 11 00  03 43 37.712   +10 11 34.17  .66809 1.6170 155.6 21.1 .392  87
2018 12 11 01  03 43 37.729   +10 11 11.37  .66835 1.6171 155.6 21.1 .400  87
2018 12 11 02  03 43 37.748   +10 10 48.62  .66860 1.6172 155.6 21.1 .408  87
2018 12 11 03  03 43 37.771   +10 10 25.92  .66886 1.6174 155.5 21.1 .416  87
2018 12 11 04  03 43 37.796   +10 10 03.27  .66912 1.6175 155.5 21.1 .424  87
2018 12 11 05  03 43 37.825   +10 09 40.67  .66938 1.6176 155.4 21.1 .432  87
2018 12 11 06  03 43 37.856   +10 09 18.11  .66964 1.6177 155.4 21.1 .440  87
2018 12 11 07  03 43 37.891   +10 08 55.60  .66990 1.6178 155.3 21.1 .448  87
2018 12 11 08  03 43 37.928   +10 08 33.13  .67016 1.6180 155.3 21.1 .456  87
2018 12 11 09  03 43 37.969   +10 08 10.71  .67042 1.6181 155.3 21.1 .465  87
2018 12 11 10  03 43 38.012   +10 07 48.35  .67068 1.6182 155.2 21.1 .473  87
2018 12 11 11  03 43 38.059   +10 07 26.02  .67094 1.6183 155.2 21.1 .482  87
2018 12 11 12  03 43 38.108   +10 07 03.75  .67120 1.6184 155.1 21.1 .490  87
2018 12 11 13  03 43 38.160   +10 06 41.52  .67146 1.6186 155.1 21.1 .499  87
2018 12 11 14  03 43 38.216   +10 06 19.34  .67172 1.6187 155.0 21.1 .508  87